User: anonymous   Login
Location: Cranbrook Institute of Science
(42.5830°N, 83.2450°W)
Time: 13:16:55
(UTC-05:00)
Language:

ATLAS 5 CENTAUR R/B - Orbit

View from above orbital plane
View from above orbital plane
View from above satellite
View from above satellite

Ground track
Ground track

The orbit data is extracted from the following two-line orbital elements,

1 31702U 07027B   18017.75112715 0.00000200  00000-0  60837-4 0    08
2 31702  63.3602 317.5078 0303000   6.1534 353.8466 14.18613405    09
Epoch (UTC): 17 January 2018 18:01:37
Eccentricity: 0.0303000
inclination: 63.3602°
perigee height: 611 km
apogee height: 1048 km
right ascension of ascending node: 317.5078°
argument of perigee: 6.1534°
revolutions per day: 14.18613405
mean anomaly at epoch: 353.8466°
orbit number at epoch: 0

The dashed part of the orbit path shows where the satellite is in the earth's shadow,  

DLR